Terminal Aerodrome Forecast
Issued by NWS

Home | Current Version | Previous Version | Text Only | Print | Product List | Glossary On
Versions: 1 2 3 4 5 6 7 8 9 10 11 12 13
000
FTUS42 TJSJ 211600 AAA
TAFISX
TAF AMD
TISX 211611Z 2116/2212 09012G20KT P6SM VCSH SCT030
     FM212130 06010KT P6SM FEW030=

USA.gov is the U.S. government's official web portal to all federal, state and local government web resources and services.